When you browse on this site, cookies collect data to enhance your experience and personalize the content and advertising you see.
Visit our Privacy Policy to learn more. By continuing to use the site, you agree to this use of cookies and data.
  • In Schweiz
  • Länderverzeichnis
  • Für 7 Tage
  • Wassertemperatur
  • Wetterkarte
  • Widgets
  • user-avatar
    Anmelden

    Stündliche Wetter Chichester

    Heute, 18 September, Mittwoch

    Zeit Temperatur Niederschläge Wind Luftdruck Luftfeuchtigkeit
    00:00 +10°C° 0 mm 5 m/S 769 mmHg 77%
    01:00 +9°C° 0 mm 5 m/S 769 mmHg 78%
    02:00 +9°C° 0 mm 5 m/S 769 mmHg 78%
    03:00 +8°C° 0 mm 4 m/S 769 mmHg 78%
    04:00 +8°C° 0 mm 4 m/S 769 mmHg 79%
    05:00 +8°C° 0 mm 4 m/S 769 mmHg 79%
    06:00 +8°C° 0 mm 4 m/S 770 mmHg 77%
    07:00 +10°C° 0 mm 4 m/S 770 mmHg 71%
    08:00 +12°C° 0 mm 4 m/S 770 mmHg 64%
    09:00 +14°C° 0 mm 4 m/S 770 mmHg 58%
    10:00 +15°C° 0 mm 4 m/S 770 mmHg 53%
    11:00 +17°C° 0 mm 4 m/S 770 mmHg 49%
    12:00 +18°C° 0 mm 4 m/S 770 mmHg 45%
    13:00 +19°C° 0 mm 3 m/S 770 mmHg 45%
    14:00 +19°C° 0 mm 3 m/S 770 mmHg 45%
    15:00 +19°C° 0 mm 3 m/S 770 mmHg 44%
    16:00 +18°C° 0 mm 3 m/S 770 mmHg 50%
    17:00 +17°C° 0 mm 3 m/S 769 mmHg 56%
    18:00 +16°C° 0 mm 3 m/S 769 mmHg 63%
    19:00 +14°C° 0 mm 3 m/S 770 mmHg 65%
    20:00 +13°C° 0 mm 3 m/S 770 mmHg 67%
    21:00 +12°C° 0 mm 3 m/S 770 mmHg 70%
    22:00 +12°C° 0 mm 3 m/S 770 mmHg 73%
    23:00 +11°C° 0 mm 3 m/S 770 mmHg 75%

    Morgen, 19 September, Donnerstag

    Zeit Temperatur Niederschläge Wind Luftdruck Luftfeuchtigkeit
    00:00 +11°C° 0 mm 3 m/S 770 mmHg 78%
    01:00 +10°C° 0 mm 3 m/S 771 mmHg 80%
    02:00 +10°C° 0 mm 2 m/S 771 mmHg 82%
    03:00 +10°C° 0 mm 2 m/S 771 mmHg 83%
    04:00 +10°C° 0 mm 2 m/S 771 mmHg 84%
    05:00 +10°C° 0 mm 2 m/S 771 mmHg 85%
    06:00 +10°C° 0 mm 3 m/S 771 mmHg 85%
    07:00 +11°C° 0 mm 3 m/S 771 mmHg 78%
    08:00 +13°C° 0 mm 3 m/S 771 mmHg 72%
    09:00 +16°C° 0 mm 3 m/S 771 mmHg 65%
    10:00 +17°C° 0 mm 3 m/S 771 mmHg 61%
    11:00 +18°C° 0 mm 4 m/S 771 mmHg 58%
    12:00 +19°C° 0 mm 4 m/S 771 mmHg 55%
    13:00 +20°C° 0 mm 4 m/S 771 mmHg 55%
    14:00 +20°C° 0 mm 4 m/S 771 mmHg 56%
    15:00 +20°C° 0 mm 4 m/S 770 mmHg 56%
    16:00 +19°C° 0 mm 4 m/S 770 mmHg 62%
    17:00 +17°C° 0 mm 4 m/S 770 mmHg 68%
    18:00 +15°C° 0 mm 4 m/S 770 mmHg 73%
    19:00 +14°C° 0 mm 5 m/S 770 mmHg 76%
    20:00 +13°C° 0 mm 5 m/S 770 mmHg 79%
    21:00 +12°C° 0 mm 5 m/S 770 mmHg 82%
    22:00 +12°C° 0 mm 5 m/S 770 mmHg 85%
    23:00 +12°C° 0 mm 5 m/S 770 mmHg 87%

    übermorgen, 20 September, Freitag

    Zeit Temperatur Niederschläge Wind Luftdruck Luftfeuchtigkeit
    00:00 +10°C° 0 mm 5 m/S 769 mmHg 90%
    01:00 +10°C° 0 mm 5 m/S 769 mmHg 90%
    02:00 +10°C° 0 mm 5 m/S 769 mmHg 90%
    03:00 +10°C° 0 mm 5 m/S 769 mmHg 90%
    04:00 +10°C° 0 mm 5 m/S 768 mmHg 88%
    05:00 +9°C° 0 mm 6 m/S 768 mmHg 86%
    06:00 +9°C° 0 mm 6 m/S 767 mmHg 85%
    07:00 +11°C° 0 mm 6 m/S 767 mmHg 75%
    08:00 +14°C° 0 mm 7 m/S 767 mmHg 66%
    09:00 +15°C° 0 mm 8 m/S 767 mmHg 57%
    10:00 +16°C° 0 mm 8 m/S 766 mmHg 52%
    11:00 +17°C° 0 mm 8 m/S 766 mmHg 47%
    12:00 +18°C° 0 mm 8 m/S 765 mmHg 42%
    13:00 +20°C° 0 mm 8 m/S 764 mmHg 41%
    14:00 +20°C° 0 mm 8 m/S 764 mmHg 41%
    15:00 +20°C° 0 mm 8 m/S 763 mmHg 40%
    16:00 +18°C° 0 mm 8 m/S 763 mmHg 44%
    17:00 +17°C° 0 mm 8 m/S 762 mmHg 47%
    18:00 +16°C° 0 mm 7 m/S 762 mmHg 51%
    19:00 +15°C° 0 mm 7 m/S 761 mmHg 55%
    20:00 +15°C° 0 mm 8 m/S 761 mmHg 60%
    21:00 +13°C° 0 mm 8 m/S 761 mmHg 64%
    22:00 +14°C° 0 mm 7 m/S 760 mmHg 65%
    23:00 +14°C° 0 mm 7 m/S 760 mmHg 66%

    21 September, Samstag

    Zeit Temperatur Niederschläge Wind Luftdruck Luftfeuchtigkeit
    00:00 +14°C° 0 mm 7 m/S 759 mmHg 67%
    01:00 +14°C° 0 mm 7 m/S 759 mmHg 68%
    02:00 +12°C° 0 mm 7 m/S 758 mmHg 70%
    03:00 +12°C° 0 mm 7 m/S 758 mmHg 72%
    04:00 +12°C° 0 mm 7 m/S 757 mmHg 74%
    05:00 +12°C° 0 mm 7 m/S 757 mmHg 77%
    06:00 +11°C° 0 mm 7 m/S 756 mmHg 79%
    07:00 +14°C° 0 mm 7 m/S 756 mmHg 75%
    08:00 +16°C° 0 mm 7 m/S 756 mmHg 71%
    09:00 +17°C° 0 mm 8 m/S 756 mmHg 68%
    10:00 +18°C° 0 mm 7 m/S 755 mmHg 66%
    11:00 +20°C° 0 mm 7 m/S 755 mmHg 65%
    12:00 +21°C° 0 mm 7 m/S 754 mmHg 64%
    13:00 +22°C° 0 mm 7 m/S 754 mmHg 63%
    14:00 +22°C° 0 mm 7 m/S 753 mmHg 62%
    15:00 +23°C° 0 mm 7 m/S 752 mmHg 62%
    16:00 +22°C° 0.2 mm 6 m/S 752 mmHg 65%
    17:00 +21°C° 0.2 mm 6 m/S 752 mmHg 69%
    18:00 +21°C° 0.2 mm 5 m/S 752 mmHg 72%
    19:00 +20°C° 1 mm 5 m/S 752 mmHg 77%
    20:00 +20°C° 1 mm 5 m/S 752 mmHg 81%
    21:00 +19°C° 1 mm 5 m/S 752 mmHg 85%
    22:00 +19°C° 0.1 mm 5 m/S 751 mmHg 85%
    23:00 +19°C° 0.1 mm 4 m/S 751 mmHg 86%

    22 September, Sonntag

    Zeit Temperatur Niederschläge Wind Luftdruck Luftfeuchtigkeit
    00:00 +19°C° 0.1 mm 4 m/S 751 mmHg 86%
    01:00 +19°C° 0.2 mm 4 m/S 751 mmHg 89%
    02:00 +19°C° 0.2 mm 4 m/S 751 mmHg 91%
    03:00 +18°C° 0.2 mm 4 m/S 751 mmHg 93%
    04:00 +18°C° 0.5 mm 4 m/S 751 mmHg 93%
    05:00 +16°C° 0.5 mm 5 m/S 751 mmHg 92%
    06:00 +16°C° 0.5 mm 5 m/S 751 mmHg 92%
    07:00 +16°C° 0.5 mm 6 m/S 751 mmHg 89%
    08:00 +16°C° 0.5 mm 6 m/S 752 mmHg 87%
    09:00 +16°C° 0.5 mm 7 m/S 752 mmHg 85%
    10:00 +17°C° 0.1 mm 8 m/S 752 mmHg 79%
    11:00 +18°C° 0.1 mm 9 m/S 752 mmHg 73%
    12:00 +18°C° 0.1 mm 10 m/S 753 mmHg 67%
    13:00 +18°C° 0.1 mm 10 m/S 753 mmHg 66%
    14:00 +18°C° 0.1 mm 10 m/S 753 mmHg 65%
    15:00 +18°C° 0.1 mm 11 m/S 753 mmHg 65%
    16:00 +17°C° 0 mm 10 m/S 753 mmHg 67%
    17:00 +16°C° 0 mm 9 m/S 754 mmHg 69%
    18:00 +16°C° 0 mm 8 m/S 754 mmHg 71%
    19:00 +15°C° 0 mm 8 m/S 755 mmHg 72%
    20:00 +15°C° 0 mm 7 m/S 756 mmHg 73%
    21:00 +14°C° 0 mm 7 m/S 756 mmHg 74%
    22:00 +14°C° 0.1 mm 6 m/S 757 mmHg 76%
    23:00 +13°C° 0.1 mm 6 m/S 757 mmHg 79%

    23 September, Montag

    Zeit Temperatur Niederschläge Wind Luftdruck Luftfeuchtigkeit
    00:00 +13°C° 0.1 mm 5 m/S 757 mmHg 82%
    01:00 +13°C° 0.1 mm 5 m/S 757 mmHg 84%
    02:00 +13°C° 0.1 mm 5 m/S 757 mmHg 85%
    03:00 +13°C° 0.1 mm 5 m/S 757 mmHg 87%
    04:00 +13°C° 0.1 mm 5 m/S 757 mmHg 87%
    05:00 +13°C° 0.1 mm 6 m/S 757 mmHg 87%
    06:00 +14°C° 0.1 mm 6 m/S 757 mmHg 86%
    07:00 +14°C° 0.1 mm 7 m/S 757 mmHg 85%
    08:00 +15°C° 0.1 mm 7 m/S 757 mmHg 84%
    09:00 +15°C° 0.1 mm 7 m/S 757 mmHg 83%
    10:00 +15°C° 0.7 mm 9 m/S 756 mmHg 86%
    11:00 +16°C° 0.7 mm 10 m/S 756 mmHg 88%
    12:00 +16°C° 0.7 mm 11 m/S 756 mmHg 91%
    13:00 +16°C° 1.9 mm 11 m/S 755 mmHg 92%
    14:00 +17°C° 1.9 mm 11 m/S 755 mmHg 93%
    15:00 +17°C° 1.9 mm 11 m/S 754 mmHg 94%
    16:00 +17°C° 0.2 mm 11 m/S 754 mmHg 94%
    17:00 +17°C° 0.2 mm 11 m/S 754 mmHg 94%
    18:00 +18°C° 0.2 mm 10 m/S 754 mmHg 94%
    19:00 +18°C° 0.3 mm 10 m/S 755 mmHg 94%
    20:00 +18°C° 0.3 mm 10 m/S 755 mmHg 94%
    21:00 +18°C° 0.3 mm 10 m/S 755 mmHg 94%
    22:00 +18°C° 0.3 mm 9 m/S 755 mmHg 94%
    23:00 +18°C° 0.3 mm 9 m/S 755 mmHg 94%
    Mehr zeigen